W1HS Weather Reports


Display with metric or nautical units.
time (UTC)temp
F
wind
direction
speed
MPH
gust
MPH
rain 1hr
in
rain 24hr
in
rain mn
in
humidity
%
barometer
mb
20260905102319 59 0.0 0.0 0.00 0.00 0.00 92 988.8
20260905101321 59 0.0 0.0 0.00 0.00 0.00 92 988.7
20260905100320 59 0.0 0.0 0.00 0.00 0.00 91 988.5
20260905095319 59 0.0 0.0 0.00 0.00 0.00 91 988.6
20260905094319 59 0.0 0.0 0.00 0.00 0.00 91 988.5
20260905093319 59 0.0 0.0 0.00 0.00 0.00 91 988.4
20260905092320 59 0.0 0.0 0.00 0.00 0.00 90 988.5
20260905091320 59 0.0 0.0 0.00 0.00 0.00 90 988.4
20260905090319 59 0.0 0.0 0.00 0.00 0.00 90 988.4
20260905085320 59 0.0 0.0 0.00 0.00 0.00 89 988.4
20260905084319 60 0.0 0.0 0.00 0.00 0.00 89 988.4
20260905083320 60 0.0 0.0 0.00 0.00 0.00 88 988.5
20260905082320 60 0.0 0.0 0.00 0.00 0.00 88 988.5
20260905081319 60 0.0 0.0 0.00 0.00 0.00 88 988.4
20260905080319 60 0.0 0.0 0.00 0.00 0.00 88 988.5
20260905075319 60 0.0 0.0 0.00 0.00 0.00 88 988.5
20260905074320 60 0.0 0.0 0.00 0.00 0.00 88 988.4
20260905073355 60 0.0 0.0 0.00 0.00 0.00 87 988.5
20260905073050 60 0.0 0.0 0.00 0.00 0.00 87 988.5
20260905072020 61 0.0 0.0 0.00 0.00 0.00 87 988.7
20260905071122 61 0.0 0.0 0.00 0.00 0.00 86 988.7
20260905070620 61 0.0 0.0 0.00 0.00 0.00 86 988.7
20260905065620 61 0.0 0.0 0.00 0.00 0.00 86 988.9
20260905064619 61 0.0 0.0 0.00 0.00 0.00 86 989.0
20260905063619 61 0.0 0.0 0.00 0.00 0.00 86 989.0
20260905062619 61 0.0 0.0 0.00 0.00 0.00 86 989.0
20260905061723 61 0.0 0.0 0.00 0.00 0.00 86 989.1
20260905061019 61 0.0 0.0 0.00 0.00 0.00 86 989.2
20260905060019 61 0.0 0.0 0.00 0.00 0.00 86 989.0
20260905055021 61 0.0 0.0 0.00 0.00 0.00 87 989.0
20260905054019 61 0.0 0.0 0.00 0.00 0.00 87 989.0
20260905053019 61 0.0 0.0 0.00 0.00 0.00 86 989.0
20260905052019 61 0.0 0.0 0.00 0.00 0.00 87 989.1
20260905051019 61 0.0 0.0 0.00 0.00 0.00 85 989.1
20260905050019 62 0.0 0.0 0.00 0.00 0.00 85 989.2
20260905045019 63 0.0 0.0 0.00 0.00 0.00 83 989.2
20260905044019 63 0.0 0.0 0.00 0.00 0.00 84 989.4
20260905043019 62 0.0 0.0 0.00 0.00 0.00 84 989.3
20260905042021 63 0.0 0.0 0.00 0.00 0.00 84 989.2
20260905041019 63 0.0 0.0 0.00 0.00 0.00 84 989.3
20260905040019 63 0.0 0.0 0.00 0.00 0.00 84 989.4
20260905035019 63 0.0 0.0 0.00 0.00 0.00 84 989.3
20260905034019 63 0.0 0.0 0.00 0.00 0.00 84 989.3
20260905033019 63 0.0 0.0 0.00 0.00 0.00 84 989.3
20260905032019 63 0.0 0.0 0.00 0.00 0.00 84 989.3
20260905031021 63 0.0 0.0 0.00 0.00 0.00 84 989.2
20260905030021 64 0.0 0.0 0.00 0.00 0.00 84 989.4
20260905025021 64 0.0 0.0 0.00 0.00 0.00 83 989.3
20260905024124 64 0.0 0.0 0.00 0.00 0.00 83 989.4
20260905023620 64 0.0 0.0 0.00 0.00 0.00 83 989.4
20260905022619 64 0.0 0.0 0.00 0.00 0.00 83 989.6
20260905021619 65 0.0 0.0 0.00 0.00 0.00 83 989.6
20260905020619 65 0.0 0.0 0.00 0.00 0.00 83 989.6
20260905015619 65 0.0 0.0 0.00 0.00 0.00 82 989.6
20260905014619 65 0.0 1.0 0.00 0.00 0.00 83 989.6
20260905013619 66 0.0 0.0 0.00 0.00 0.00 82 989.7
20260905012619 66 0.0 1.0 0.00 0.00 0.00 81 989.7
20260905011619 66 0.0 0.0 0.00 0.00 0.00 81 989.7
20260905010622 65 0.0 0.0 0.00 0.00 0.00 80 989.3
20260905005619 65 0.0 0.0 0.00 0.00 0.00 81 989.3
20260905004619 65 0.0 0.0 0.00 0.00 0.00 82 989.3
20260905003621 65 0.0 0.0 0.00 0.00 0.00 81 989.3
20260905002619 66 0.0 0.0 0.00 0.00 0.00 81 989.4
20260905001654 66 0.0 0.0 0.00 0.00 0.00 80 989.3
20260905001420 66 0.0 0.0 0.00 0.00 0.00 80 989.2
20260905000418 66 0.0 0.0 0.00 0.00 0.00 80 989.1
20260904235419 67 0.0 0.0 0.00 0.00 0.00 80 989.1
20260904234419 67 0.0 0.0 0.00 0.00 0.00 79 989.0
20260904233419 67 0.0 0.0 0.00 0.00 0.00 78 989.0
20260904232419 68 0.0 0.0 0.00 0.00 0.00 78 989.0
20260904231419 68 0.0 0.0 0.00 0.00 0.00 78 988.9
20260904230418 69 0.0 0.0 0.00 0.00 0.00 75 988.9
20260904225419 70 0.0 0.0 0.00 0.00 0.00 75 988.9
20260904224419 70 0 1.0 3.0 0.00 0.00 0.00 72 988.9
20260904223419 71 0.0 0.0 0.00 0.00 0.00 72 988.9
20260904222418 72 0.0 0.0 0.00 0.00 0.00 70 988.8
20260904221419 72 0.0 0.0 0.00 0.00 0.00 70 988.8
20260904220419 73 0.0 0.0 0.00 0.00 0.00 69 988.9
20260904215418 73 0.0 2.0 0.00 0.00 0.00 63 988.9
20260904214419 73 293 2.0 4.0 0.00 0.00 0.00 61 989.0
20260904213419 74 315 2.0 10.0 0.00 0.00 0.00 60 989.0
20260904212418 74 270 2.0 3.0 0.00 0.00 0.00 60 988.9
20260904211418 75 293 5.0 10.0 0.00 0.00 0.00 58 989.1
20260904210419 76 293 3.0 10.0 0.00 0.00 0.00 56 989.0
20260904205419 76 315 7.0 13.0 0.00 0.00 0.00 56 989.0
20260904204419 76 338 1.0 3.0 0.00 0.00 0.00 60 989.0
20260904203419 76 293 5.0 10.0 0.00 0.00 0.00 57 989.1
20260904202418 76 248 4.0 8.0 0.00 0.00 0.00 56 989.1
20260904201418 77 293 3.0 6.0 0.00 0.00 0.00 56 989.0
20260904200420 76 293 3.0 8.0 0.00 0.00 0.00 60 989.0
20260904195419 76 293 3.0 7.0 0.00 0.00 0.00 59 989.2
20260904194419 77 270 3.0 6.0 0.00 0.00 0.00 58 989.1
20260904193419 77 270 5.0 8.0 0.00 0.00 0.00 54 989.1
20260904192419 78 293 6.0 11.0 0.00 0.00 0.00 54 989.1
20260904191418 77 293 3.0 5.0 0.00 0.00 0.00 55 989.2
20260904190418 77 293 2.0 7.0 0.00 0.00 0.00 57 989.2
20260904185419 77 45 3.0 4.0 0.00 0.00 0.00 54 989.2
20260904184418 77 293 3.0 8.0 0.00 0.00 0.00 57 989.2
20260904183418 77 270 1.0 4.0 0.00 0.00 0.00 57 989.3
20260904182418 78 338 2.0 6.0 0.00 0.00 0.00 57 989.5
20260904181420 77 293 1.0 3.0 0.00 0.00 0.00 56 989.5
20260904180418 78 90 1.0 3.0 0.00 0.00 0.00 58 989.6
20260904175420 77 293 6.0 10.0 0.00 0.00 0.00 55 989.5
20260904174418 76 293 4.0 8.0 0.00 0.00 0.00 58 989.5
20260904173418 77 270 3.0 6.0 0.00 0.00 0.00 57 989.3
20260904172418 75 248 5.0 12.0 0.00 0.00 0.00 62 989.3
20260904171418 76 315 2.0 5.0 0.00 0.00 0.00 64 989.6
20260904170418 75 0.0 0.0 0.00 0.00 0.00 68 989.7
20260904165418 76 315 1.0 3.0 0.00 0.00 0.00 66 989.6
20260904164419 76 270 1.0 2.0 0.00 0.00 0.00 65 989.7
20260904163418 74 270 1.0 2.0 0.00 0.00 0.00 69 989.7
20260904162418 75 0.0 0.0 0.00 0.00 0.00 70 990.0
20260904161420 75 315 2.0 4.0 0.00 0.00 0.00 70 989.9
20260904160418 74 315 1.0 4.0 0.00 0.00 0.00 75 990.0
20260904155422 74 293 1.0 3.0 0.00 0.00 0.00 72 990.0
20260904154418 75 293 1.0 4.0 0.00 0.00 0.00 71 990.0
20260904153418 74 0.0 2.0 0.00 0.00 0.00 69 990.1
20260904152418 75 293 3.0 7.0 0.00 0.00 0.00 70 990.4
20260904151418 74 293 3.0 7.0 0.00 0.00 0.00 72 990.4
20260904150418 73 270 3.0 13.0 0.00 0.00 0.00 74 990.4
20260904145418 72 0.0 2.0 0.00 0.00 0.00 75 990.3
20260904144417 72 248 1.0 2.0 0.00 0.00 0.00 75 990.4
20260904143418 71 270 3.0 6.0 0.00 0.00 0.00 78 990.5
20260904142451 71 0.0 2.0 0.00 0.00 0.00 80 990.4
20260904142118 71 270 4.0 6.0 0.00 0.00 0.00 81 990.4
20260904141118 70 248 3.0 5.0 0.00 0.00 0.00 84 990.4
20260904140118 70 270 1.0 6.0 0.00 0.00 0.00 85 990.4
20260904135117 70 315 2.0 4.0 0.00 0.00 0.00 84 990.5
20260904134118 69 0.0 1.0 0.00 0.00 0.00 83 990.5
20260904133118 68 338 1.0 3.0 0.00 0.00 0.00 84 990.4
20260904132120 67 0.0 0.0 0.00 0.00 0.00 87 990.4
20260904131120 66 0.0 0.0 0.00 0.00 0.00 93 990.5
20260904130120 65 0.0 0.0 0.00 0.00 0.00 94 990.4
20260904125120 64 0.0 0.0 0.00 0.00 0.00 95 990.5
20260904124120 63 0.0 0.0 0.00 0.00 0.00 95 990.5
20260904123120 63 0.0 0.0 0.00 0.00 0.00 95 990.4
20260904122120 62 0.0 0.0 0.00 0.00 0.00 95 990.5
20260904121118 62 0.0 0.0 0.00 0.00 0.00 95 990.3
20260904120122 61 0.0 0.0 0.00 0.00 0.00 95 990.2
20260904115120 61 0.0 0.0 0.00 0.00 0.00 95 990.3
20260904114119 61 0.0 0.0 0.00 0.00 0.00 94 990.2
20260904113121 62 0.0 0.0 0.00 0.00 0.00 94 990.1
20260904112120 62 0.0 0.0 0.00 0.00 0.00 95 990.1
20260904111121 62 0.0 0.0 0.00 0.00 0.00 95 989.9
20260904110122 62 0.0 0.0 0.00 0.00 0.00 95 989.8
20260904105119 62 0.0 0.0 0.00 0.00 0.00 95 989.9
20260904104122 62 0.0 0.0 0.00 0.00 0.00 95 989.8
20260904103120 61 0.0 0.0 0.00 0.00 0.00 94 989.9